Weather History for KTPF - July, 2013

Change the Weather History Date:

Sunday, July 28, 2013

  Actual Average (KTPA) Record (KTPA)
Temperature  
Mean Temperature 81 °F 83 °F  
Max Temperature 87 °F 90 °F 97 °F (1996)
Min Temperature 75 °F 76 °F 69 °F (1926)
Degree Days  
Heating Degree Days 0 0  
Month to date heating degree days 0  
Since 1 June heating degree days 0  
Since 1 July heating degree days 0  
Cooling Degree Days 16 18  
Month to date cooling degree days 504  
Year to date cooling degree days 1897  
Since 1 June cooling degree days 1020  
Growing Degree Days 31 (Base 50)    
Moisture  
Dew Point 73 °F    
Average Humidity 79    
Maximum Humidity 89    
Minimum Humidity 62    
Precipitation  
Precipitation 0.00 in 0.23 in 4.89 in (1960)
Month to date precipitation 6.41  
Year to date precipitation 25.29  
Sea Level Pressure  
Sea Level Pressure 30.01 in    
Wind  
Wind Speed 2 mph (SSE)    
Max Wind Speed 12 mph    
Max Gust Speed 21 mph    
Visibility 9 miles    
Events Rain    
T = Trace of Precipitation, MM = Missing Value Source: NWS Daily Summary

Daily Weather History Graph

Daily Weather History Graph

Search for Another Location

Airport or City:

Trip Planner

Search our weather history database for the weather conditions in past years. The results will help you decide how hot, cold, wet, or windy it might be!

Date:

Astronomy

Jul. 28, 2013 Rise Set
Actual Time 6:50 AM EDT 8:21 PM EDT
Civil Twilight 6:24 AM EDT 8:47 PM EDT
Nautical Twilight 5:54 AM EDT 9:17 PM EDT
Astronomical Twilight 5:22 AM EDT 9:49 PM EDT
Moon No Moon Rise 12:51 PM EDT (7/28)
Length of Visible Light 14h 22m
Length of Day
13h 31m
Waning Gibbous, 61% of the Moon is Illuminated
Jul 28
Waning Gibbous
Jul 29
Last Quarter
Aug 6
New
Aug 14
First Quarter
Aug 20
Full

Hourly Weather History & Observations

Time (EDT) Temp. Heat Index Dew Point Humidity Pressure Visibility Wind Dir Wind Speed Gust Speed Precip Events Conditions
12:15 AM 78.8 °F - 73.4 °F 83% 30.00 in 10.0 mi Calm Calm - N/A   Scattered Clouds
12:35 AM 78.8 °F - 73.4 °F 83% 30.00 in 10.0 mi Calm Calm - N/A   Mostly Cloudy
12:55 AM 80.6 °F 85.4 °F 73.4 °F 79% 29.99 in 10.0 mi Calm Calm - N/A   Mostly Cloudy
1:15 AM 80.6 °F 84.6 °F 71.6 °F 74% 29.98 in 10.0 mi Calm Calm - N/A   Scattered Clouds
1:35 AM 80.6 °F 84.6 °F 71.6 °F 74% 29.98 in 10.0 mi SW 3.5 mph - N/A   Clear
1:55 AM 80.6 °F 84.6 °F 71.6 °F 74% 29.98 in 10.0 mi Calm Calm - N/A   Clear
2:15 AM 78.8 °F - 71.6 °F 78% 29.97 in 10.0 mi Calm Calm - N/A   Clear
2:35 AM 78.8 °F - 73.4 °F 83% 29.97 in 10.0 mi Calm Calm - N/A   Clear
2:55 AM 77.0 °F - 73.4 °F 89% 29.97 in 10.0 mi Calm Calm - N/A   Clear
3:15 AM 77.0 °F - 73.4 °F 89% 29.96 in 10.0 mi Calm Calm - N/A   Clear
3:35 AM 77.0 °F - 73.4 °F 89% 29.96 in 10.0 mi Calm Calm - N/A   Clear
3:55 AM 77.0 °F - 73.4 °F 89% 29.96 in 7.0 mi SE 3.5 mph - N/A   Clear
4:15 AM 77.0 °F - 73.4 °F 89% 29.96 in 7.0 mi Calm Calm - N/A   Clear
4:35 AM 77.0 °F - 73.4 °F 89% 29.96 in 7.0 mi Calm Calm - N/A   Clear
4:55 AM 77.0 °F - 73.4 °F 89% 29.95 in 7.0 mi Calm Calm - N/A   Clear
5:15 AM 77.0 °F - 73.4 °F 89% 29.96 in 5.0 mi Calm Calm - N/A   Clear
5:35 AM 77.0 °F - 73.4 °F 89% 29.96 in 5.0 mi Calm Calm - N/A   Clear
5:55 AM 77.0 °F - 73.4 °F 89% 29.97 in 5.0 mi Calm Calm - N/A   Clear
6:15 AM 77.0 °F - 73.4 °F 89% 29.97 in 7.0 mi Calm Calm - N/A   Clear
6:35 AM 77.0 °F - 73.4 °F 89% 29.98 in 7.0 mi Calm Calm - N/A   Clear
6:55 AM 77.0 °F - 73.4 °F 89% 29.98 in 5.0 mi Calm Calm - N/A   Clear
7:15 AM 77.0 °F - 73.4 °F 89% 29.98 in 5.0 mi Calm Calm - N/A   Clear
7:35 AM 78.8 °F - 75.2 °F 89% 29.99 in 5.0 mi Calm Calm - N/A   Clear
7:55 AM 80.6 °F 87.1 °F 77.0 °F 89% 30.00 in 5.0 mi Calm Calm - N/A   Clear
8:15 AM 80.6 °F 86.2 °F 75.2 °F 84% 30.01 in 10.0 mi SE 3.5 mph - N/A   Clear
8:35 AM 80.6 °F 85.4 °F 73.4 °F 79% 30.01 in 10.0 mi Calm Calm - N/A   Clear
8:55 AM 80.6 °F 86.2 °F 75.2 °F 84% 30.02 in 10.0 mi SSE 5.8 mph - N/A   Clear
9:15 AM 82.4 °F 89.5 °F 75.2 °F 79% 30.02 in 10.0 mi SSE 5.8 mph - N/A   Clear
9:35 AM 82.4 °F 89.5 °F 75.2 °F 79% 30.01 in 10.0 mi South 3.5 mph - N/A   Clear
9:55 AM 82.4 °F 89.5 °F 75.2 °F 79% 30.01 in 10.0 mi SSW 5.8 mph - N/A   Clear
10:15 AM 82.4 °F 88.2 °F 73.4 °F 74% 30.02 in 10.0 mi South 3.5 mph - N/A   Clear
10:35 AM 86.0 °F 95.1 °F 75.2 °F 70% 30.02 in 10.0 mi South 4.6 mph - N/A   Clear
10:55 AM 86.0 °F 93.4 °F 73.4 °F 66% 30.02 in 10.0 mi SSE 4.6 mph - N/A   Scattered Clouds
11:15 AM 86.0 °F 93.4 °F 73.4 °F 66% 30.02 in 10.0 mi South 4.6 mph - N/A   Clear
11:55 AM 84.2 °F 90.9 °F 73.4 °F 70% 30.03 in 10.0 mi SSW 8.1 mph - N/A   Scattered Clouds
12:35 PM 86.0 °F 93.4 °F 73.4 °F 66% 30.03 in 10.0 mi South 6.9 mph - N/A   Mostly Cloudy
12:55 PM 84.2 °F 90.9 °F 73.4 °F 70% 30.03 in 10.0 mi SSW 4.6 mph - N/A   Scattered Clouds
1:15 PM 87.8 °F 97.6 °F 75.2 °F 66% 30.02 in 10.0 mi South 5.8 mph - N/A   Clear
1:35 PM 86.0 °F 91.8 °F 71.6 °F 62% 30.03 in 10.0 mi West 6.9 mph - N/A Rain Light Rain
1:55 PM 80.6 °F 83.9 °F 69.8 °F 70% 30.04 in 10.0 mi NW 4.6 mph - N/A Rain Light Rain
2:15 PM 80.6 °F 83.9 °F 69.8 °F 70% 30.04 in 10.0 mi West 3.5 mph - N/A Rain Light Rain
2:35 PM 82.4 °F 87.2 °F 71.6 °F 70% 30.03 in 10.0 mi East 11.5 mph - N/A Rain Light Rain
2:55 PM 80.6 °F 84.6 °F 71.6 °F 74% 30.02 in 10.0 mi East 6.9 mph - N/A   Scattered Clouds
3:15 PM 82.4 °F 87.2 °F 71.6 °F 70% 30.03 in 10.0 mi East 3.5 mph - N/A   Clear
3:35 PM 84.2 °F 89.6 °F 71.6 °F 66% 30.02 in 10.0 mi SE 4.6 mph - N/A   Clear
4:15 PM 82.4 °F 87.2 °F 71.6 °F 70% 30.03 in 10.0 mi SW 4.6 mph - N/A   Mostly Cloudy
4:35 PM 78.8 °F - 69.8 °F 74% 30.04 in 10.0 mi WNW 10.4 mph 20.7 mph N/A   Light Drizzle
4:55 PM 75.2 °F - 71.6 °F 89% 30.04 in 7.0 mi NW 3.5 mph - N/A Rain Light Rain
5:15 PM 77.0 °F - 71.6 °F 83% 30.04 in 10.0 mi SSE 5.8 mph - N/A   Mostly Cloudy
5:35 PM 77.0 °F - 71.6 °F 83% 30.03 in 10.0 mi ESE 5.8 mph - N/A   Scattered Clouds
5:55 PM 77.0 °F - 71.6 °F 83% 30.03 in 10.0 mi East 3.5 mph - N/A   Clear
6:35 PM 78.8 °F - 71.6 °F 78% 30.03 in 10.0 mi Calm Calm - N/A   Clear
6:55 PM 78.8 °F - 69.8 °F 74% 30.03 in 10.0 mi Calm Calm - N/A   Clear
7:15 PM 78.8 °F - 71.6 °F 78% 30.03 in 10.0 mi ENE 3.5 mph - N/A   Clear
7:35 PM 78.8 °F - 71.6 °F 78% 30.03 in 10.0 mi ENE 3.5 mph - N/A   Clear
7:55 PM 78.8 °F - 71.6 °F 78% 30.04 in 10.0 mi Calm Calm - N/A   Clear
8:15 PM 78.8 °F - 73.4 °F 83% 30.04 in 10.0 mi Calm Calm - N/A   Clear
8:55 PM 78.8 °F - 71.6 °F 78% 30.05 in 10.0 mi Calm Calm - N/A   Clear
9:15 PM 78.8 °F - 71.6 °F 78% 30.05 in 10.0 mi Calm Calm - N/A   Clear
10:35 PM 77.0 °F - 71.6 °F 83% 30.07 in 10.0 mi ESE 3.5 mph - N/A   Clear
10:55 PM 77.0 °F - 69.8 °F 78% 30.07 in 10.0 mi East 3.5 mph - N/A   Clear
11:15 PM 77.0 °F - 71.6 °F 83% 30.07 in 10.0 mi Calm Calm - N/A   Clear